Date String (YYYY-MM-DD hh:mm:ss) UTC,Instrument flags,absolute air pressure of the measurement (hPa),sample flow rate (lpm),inlet stack bypass flow (lpm),air temperature of the measurement (°C),ambient temperature measured by the external sensor (°C),aerosol sample conditioner tube jacket temperature (°C),OPC LED temperature (°C),internal box temperature (°C),relative humidity of the measurement (%),span deviation,mass concentration of particles derived from Lorenz-Mie calculation of OPC scattering (μg/m³),mass concentration of particles derived from Lorenz-Mie calculation of OPC scattering (μg/m³),mass concentration of particles derived from Lorenz-Mie calculation of OPC scattering (μg/m³)
DateTimeUTC,F1_M11,P_M11,Q1_M11,Q2_M11,T1_M11,T2_M11,T3_M11,T4_M11,T5_M11,U1_M11,ZSPAN_M11,X0_M11,X2_M11,X1_M11
2023-11-17 09:00:00,SystemResetWarning,0830.2,4.99,000.00,027.5,026.5,000.0,035.9,028.9,19.6,0000.0,0010.41,0005.93,0005.24
2023-11-17 09:01:00,SystemResetWarning,0830.3,5.00,000.00,027.5,026.5,000.0,035.9,028.9,19.6,0000.0,0010.49,0006.00,0005.28
2023-11-17 09:02:00,SystemResetWarning,0830.3,5.00,000.00,027.5,026.5,000.0,035.9,028.9,19.6,0000.0,0009.94,0006.03,0005.29
2023-11-17 09:03:00,SystemResetWarning,0830.2,5.00,000.00,027.5,026.5,000.0,035.9,028.9,19.6,0000.0,0010.03,0006.10,0005.31
2023-11-17 09:04:00,SystemResetWarning,0830.2,5.00,000.00,027.5,026.5,000.0,035.9,028.9,19.5,0000.0,0009.85,0006.10,0005.31
2023-11-17 09:05:00,SystemResetWarning,0830.3,5.00,000.00,027.5,026.5,000.0,035.9,028.9,19.5,0000.0,0009.91,0006.06,0005.30
2023-11-17 09:06:00,SystemResetWarning,0830.2,5.01,000.00,027.5,026.5,000.0,035.9,028.9,19.5,0000.0,0009.94,0006.02,0005.28
2023-11-17 09:07:00,SystemResetWarning,0830.1,5.01,000.00,027.5,026.5,000.0,035.9,028.8,19.4,0000.0,0010.06,0005.99,0005.26
2023-11-17 09:08:00,SystemResetWarning,0830.1,5.00,000.00,027.5,026.5,000.0,035.9,028.8,19.4,0000.0,0010.13,0005.93,0005.21
2023-11-17 09:09:00,SystemResetWarning,0830.2,5.00,000.00,027.5,026.5,000.0,035.9,028.8,19.3,0000.0,0010.09,0005.88,0005.17
2023-11-17 09:10:00,SystemResetWarning,0830.2,4.99,000.00,027.5,026.5,000.0,035.9,028.9,19.3,0000.0,0010.03,0005.85,0005.13
2023-11-17 09:11:00,SystemResetWarning,0830.2,4.99,000.00,027.5,026.5,000.0,035.9,028.9,19.3,0000.0,0009.92,0005.80,0005.09
2023-11-17 09:12:00,SystemResetWarning,0830.2,5.00,000.00,027.5,026.5,000.0,035.9,028.8,19.3,0000.0,0009.79,0005.75,0005.05
2023-11-17 09:13:00,SystemResetWarning,0830.1,5.01,000.00,027.5,026.5,000.0,035.9,028.8,19.2,0000.0,0009.99,0005.73,0005.04
2023-11-17 09:14:00,SystemResetWarning,0830.1,5.00,000.00,027.5,026.5,000.0,035.9,028.9,19.2,0000.0,0010.33,0005.68,0005.01
2023-11-17 09:15:00,SystemResetWarning,0830.1,5.00,000.00,027.4,026.5,000.0,035.9,028.8,19.2,0000.0,0010.75,0005.65,0004.98
2023-11-17 09:16:00,SystemResetWarning,0830.1,5.00,000.00,027.5,026.4,000.0,035.9,028.8,19.2,0000.0,0010.71,0005.65,0004.97
2023-11-17 09:17:00,SystemResetWarning,0830.1,5.00,000.00,027.5,026.4,000.0,035.8,028.8,19.2,0000.0,0010.68,0005.60,0004.96
2023-11-17 09:18:00,SystemResetWarning,0830.1,5.00,000.00,027.5,026.4,000.0,035.8,028.8,19.2,0000.0,0010.42,0005.57,0004.95
2023-11-17 09:19:00,SystemResetWarning,0830.1,5.00,000.00,027.4,026.4,000.0,035.8,028.8,19.3,0000.0,0010.17,0005.55,0004.94
2023-11-17 09:20:00,SystemResetWarning,0830.1,4.99,000.00,027.4,026.4,000.0,035.8,028.9,19.3,0000.0,0010.20,0005.57,0004.93
2023-11-17 09:21:00,SystemResetWarning,0830.0,4.99,000.00,027.4,026.4,000.0,035.8,028.9,19.3,0000.0,0010.21,0005.56,0004.93
2023-11-17 09:22:00,SystemResetWarning,0830.0,5.00,000.00,027.4,026.3,000.0,035.8,028.8,19.3,0000.0,0010.28,0005.58,0004.94
2023-11-17 09:23:00,SystemResetWarning,0830.0,5.01,000.00,027.4,026.3,000.0,035.8,028.8,19.4,0000.0,0010.36,0005.58,0004.93
2023-11-17 09:24:00,SystemResetWarning,0830.0,5.01,000.00,027.4,026.3,000.0,035.8,028.8,19.4,0000.0,0010.80,0005.60,0004.93
2023-11-17 09:25:00,SystemResetWarning,0830.0,5.01,000.00,027.4,026.2,000.0,035.8,028.7,19.4,0000.0,0010.49,0005.58,0004.94
2023-11-17 09:26:00,SystemResetWarning,0830.0,4.99,000.00,027.3,026.2,000.0,035.8,028.7,19.5,0000.0,0010.37,0005.60,0004.96
2023-11-17 09:27:00,SystemResetWarning,0830.1,4.98,000.00,027.3,026.2,000.0,035.8,028.7,19.6,0000.0,0010.17,0005.58,0004.97
2023-11-17 09:28:00,SystemResetWarning,0830.0,5.00,000.00,027.3,026.2,000.0,035.8,028.7,19.6,0000.0,0010.20,0005.58,0004.97
2023-11-17 09:29:00,SystemResetWarning,0830.0,5.00,000.00,027.3,026.2,000.0,035.8,028.7,19.6,0000.0,0010.21,0005.63,0004.98
2023-11-17 09:30:00,SystemResetWarning,0830.0,5.01,000.00,027.3,026.2,000.0,035.8,028.7,19.6,0000.0,0010.39,0005.70,0005.00
2023-11-17 09:31:00,SystemResetWarning,0830.0,5.00,000.00,027.3,026.2,000.0,035.8,028.7,19.7,0000.0,0010.44,0005.73,0005.02
2023-11-17 09:32:00,SystemResetWarning,0830.0,5.00,000.00,027.3,026.1,000.0,035.8,028.6,19.7,0000.0,0010.37,0005.71,0005.04
2023-11-17 09:33:00,SystemResetWarning,0830.0,5.00,000.00,027.3,026.2,000.0,035.7,028.7,19.7,0000.0,0010.18,0005.66,0005.05
2023-11-17 09:34:00,SystemResetWarning,0829.9,4.99,000.00,027.3,026.1,000.0,035.7,028.7,19.7,0000.0,0010.08,0005.65,0005.07
2023-11-17 09:35:00,SystemResetWarning,0829.9,4.99,000.00,027.3,026.1,000.0,035.7,028.6,19.8,0000.0,0009.76,0005.66,0005.09
2023-11-17 09:36:00,SystemResetWarning,0829.9,5.00,000.00,027.3,026.1,000.0,035.7,028.6,19.8,0000.0,0009.87,0005.71,0005.10
2023-11-17 09:37:00,SystemResetWarning,0829.9,5.01,000.00,027.2,026.1,000.0,035.7,028.6,19.8,0000.0,0009.63,0005.72,0005.11
2023-11-17 09:38:00,SystemResetWarning,0829.8,5.01,000.00,027.2,026.1,000.0,035.7,028.6,19.7,0000.0,0009.69,0005.76,0005.12
2023-11-17 09:39:00,SystemResetWarning,0829.8,4.99,000.00,027.2,026.1,000.0,035.7,028.6,19.7,0000.0,0009.61,0005.79,0005.15
2023-11-17 09:40:00,SystemResetWarning,0829.7,5.00,000.00,027.2,026.1,000.0,035.7,028.6,19.7,0000.0,0009.81,0005.83,0005.18
2023-11-17 09:41:00,SystemResetWarning,0829.7,4.99,000.00,027.2,026.1,000.0,035.7,028.6,19.7,0000.0,0009.70,0005.80,0005.20
2023-11-17 09:42:00,SystemResetWarning,0829.7,5.00,000.00,027.2,026.1,000.0,035.7,028.6,19.8,0000.0,0009.67,0005.81,0005.22
2023-11-17 09:43:00,SystemResetWarning,0829.7,5.00,000.00,027.2,026.1,000.0,035.7,028.6,19.8,0000.0,0009.75,0005.85,0005.23
2023-11-17 09:44:00,SystemResetWarning,0829.7,5.00,000.00,027.2,026.1,000.0,035.7,028.6,19.9,0000.0,0010.02,0005.93,0005.24
2023-11-17 09:45:00,SystemResetWarning,0829.7,5.00,000.00,027.2,026.1,000.0,035.7,028.6,20.0,0000.0,0010.89,0006.01,0005.28
2023-11-17 09:46:00,SystemResetWarning,0829.7,5.00,000.00,027.2,026.1,000.0,035.6,028.6,20.0,0000.0,0011.42,0006.04,0005.32
2023-11-17 09:47:00,SystemResetWarning,0829.7,4.99,000.00,027.2,026.1,000.0,035.6,028.6,20.0,0000.0,0011.13,0006.06,0005.34
2023-11-17 09:48:00,SystemResetWarning,0829.7,4.99,000.00,027.2,026.1,000.0,035.6,028.6,19.9,0000.0,0011.05,0006.11,0005.40
2023-11-17 09:49:00,SystemResetWarning,0829.7,5.00,000.00,027.2,026.1,000.0,035.6,028.6,19.8,0000.0,0011.65,0006.15,0005.47
2023-11-17 09:50:00,SystemResetWarning,0829.7,5.00,000.00,027.2,026.1,000.0,035.6,028.6,19.8,0000.0,0011.72,0006.22,0005.54
2023-11-17 09:51:00,SystemResetWarning,0829.6,5.01,000.00,027.2,026.1,000.0,035.6,028.6,19.8,0000.0,0011.79,0006.32,0005.60
2023-11-17 09:52:00,SystemResetWarning,0829.6,5.01,000.00,027.2,026.1,000.0,035.6,028.6,19.9,0000.0,0011.78,0006.37,0005.67
2023-11-17 09:53:00,SystemResetWarning,0829.6,4.99,000.00,027.2,026.1,000.0,035.6,028.6,19.9,0000.0,0011.96,0006.41,0005.70
2023-11-17 09:54:00,SystemResetWarning,0829.5,4.99,000.00,027.2,026.1,000.0,035.6,028.5,20.0,0000.0,0012.25,0006.46,0005.75
2023-11-17 09:55:00,SystemResetWarning,0829.4,5.00,000.00,027.2,026.1,000.0,035.6,028.5,20.1,0000.0,0012.35,0006.51,0005.80
2023-11-17 09:56:00,SystemResetWarning,0829.5,5.00,000.00,027.1,026.1,000.0,035.6,028.6,20.1,0000.0,0012.25,0006.56,0005.86
2023-11-17 09:57:00,SystemResetWarning,0829.4,5.00,000.00,027.1,026.0,000.0,035.6,028.6,20.0,0000.0,0011.90,0006.62,0005.91
2023-11-17 09:58:00,SystemResetWarning,0829.4,5.00,000.00,027.1,026.0,000.0,035.6,028.5,20.1,0000.0,0011.89,0006.68,0005.98
2023-11-17 09:59:00,SystemResetWarning,0829.3,5.01,000.00,027.1,026.0,000.0,035.6,028.5,20.1,0000.0,0011.98,0006.74,0006.04
